Theta_e
314 314 315 315 316 316 316 316 315 315 314 315 316 318 315 314 313 314 315 316 316 316 316 317 317 316 317 317 317 316 321 321 320 318 319 313 315 310 311 311 310 310 311 311 309
311 311 311 312 312 313 314 315 315 315 314 314 314 316 317 315 314 314 316 315 316 315 316 317 317 317 318 317 316 319 321 320 318 317 318 314 314 314 312 312 311 310 312 311 310
311 311 310 310 310 310 311 311 312 313 313 313 313 314 316 316 315 316 315 315 315 314 317 317 318 316 318 317 316 316 319 317 316 314 314 315 313 313 314 315 315 314 312 311 310
313 313 313 313 313 312 311 310 310 311 311 312 312 313 314 316 317 317 315 316 314 314 316 317 318 317 318 319 315 318 314 315 315 314 313 314 312 312 312 317 315 314 313 312 310
313 313 313 313 313 313 312 312 311 310 310 310 311 312 314 315 315 316 315 315 313 313 314 317 318 317 320 317 314 317 315 314 314 313 313 311 313 314 312 314 313 313 312 311 310
314 314 314 314 314 313 313 312 311 311 310 309 310 311 313 315 313 315 316 314 313 312 313 315 318 317 315 316 317 315 314 315 313 314 312 313 314 310 315 314 312 312 312 311 311
314 314 314 314 313 313 313 313 312 311 310 310 310 311 313 313 313 314 316 314 313 313 312 314 317 316 315 315 312 312 315 315 313 313 314 311 315 314 315 313 311 311 311 310 310
314 314 314 314 314 314 313 313 313 311 311 310 310 312 313 312 314 315 315 315 313 312 311 313 316 315 313 311 312 315 315 319 315 312 311 312 317 318 315 310 311 310 308 308 310
313 313 314 314 314 314 314 313 312 311 310 310 311 312 315 313 314 315 316 313 312 311 312 313 315 314 312 316 319 316 318 317 316 312 312 313 318 317 313 309 311 312 310 308 307
307 309 312 313 313 313 313 312 311 310 310 312 313 315 313 314 315 316 315 312 311 311 312 314 314 317 315 318 317 318 317 317 317 314 311 314 315 315 314 309 311 313 312 309 306
307 306 307 310 312 312 312 310 310 310 311 313 314 315 313 314 315 315 314 311 310 311 314 314 317 318 318 318 317 314 315 316 318 311 313 315 314 314 314 313 312 312 312 311 307
308 307 306 306 309 310 309 307 308 309 310 310 311 312 313 314 314 315 314 312 311 314 313 315 316 317 315 313 314 315 317 318 317 309 310 313 312 312 312 312 312 312 313 312 308
310 309 307 305 307 308 307 307 308 311 313 311 311 310 311 311 312 313 313 312 313 313 314 315 316 310 313 314 314 315 317 318 315 311 308 308 312 312 311 309 310 311 311 311 309
307 308 309 306 305 306 307 309 311 312 310 309 308 310 311 312 311 311 312 312 311 314 313 314 313 313 313 315 314 317 314 313 312 312 317 309 316 315 314 312 311 312 313 310 310
310 309 308 306 306 307 309 311 311 306 311 308 308 309 313 311 308 309 309 310 313 312 313 315 311 311 314 315 313 316 307 309 309 311 309 314 312 314 307 310 312 313 313 311 309
314 312 311 309 305 306 309 310 311 307 307 309 311 311 312 310 308 307 308 308 309 312 310 313 306 309 313 305 307 305 308 308 306 309 314 315 314 314 312 312 312 312 312 311 310
316 313 312 311 307 305 307 309 309 306 305 308 312 310 311 312 310 309 309 310 312 313 314 313 311 307 306 310 306 308 313 317 320 318 318 309 309 312 311 311 311 314 314 309 309
318 315 314 313 310 309 308 310 307 309 309 309 311 309 313 312 312 310 309 311 309 310 312 316 315 309 308 313 316 310 314 320 321 317 317 307 310 313 311 311 311 308 309 308 307
319 316 315 315 313 310 308 309 308 309 308 308 311 312 312 311 311 310 311 312 312 310 314 314 315 304 303 304 308 309 312 311 316 305 312 314 315 312 309 309 308 306 306 307 307
319 317 316 317 314 310 308 308 308 308 306 309 309 311 311 312 310 311 312 311 312 309 313 313 315 307 301 302 301 306 306 311 313 319 318 316 316 316 312 310 309 308 308 310 308
318 314 315 315 311 311 310 308 308 306 306 308 309 309 309 310 312 310 312 311 311 310 309 311 314 311 303 305 311 304 308 306 307 310 316 316 315 311 311 310 310 310 310 310 309
316 314 314 313 311 311 311 310 307 307 305 308 307 308 309 309 309 311 311 311 310 308 310 310 313 317 314 302 300 305 309 310 313 313 311 313 314 309 310 310 309 308 308 309 310
315 314 313 312 312 309 310 310 309 308 308 307 307 308 308 308 307 309 310 309 308 309 309 308 312 317 316 304 300 305 304 307 309 310 313 315 313 311 311 310 310 308 308 308 309
316 312 307 309 311 312 312 312 311 309 309 306 306 306 307 307 307 308 309 307 306 309 307 309 312 314 313 312 308 308 305 305 309 312 313 312 312 312 312 311 310 310 307 307 308
315 312 307 306 308 311 312 313 314 312 308 308 307 307 308 309 309 308 309 309 304 305 307 309 312 312 313 313 311 311 310 309 307 308 310 311 311 311 311 311 311 310 309 309 308
311 312 306 309 308 308 310 312 313 314 313 310 310 311 308 308 309 313 309 308 309 303 307 306 311 310 310 310 310 311 311 311 311 311 311 309 308 309 309 309 309 309 308 308 307
306 309 308 308 308 309 309 309 311 312 312 311 311 310 311 308 308 309 309 310 309 309 308 306 308 310 313 312 311 311 311 310 311 310 310 311 311 311 311 310 309 309 309 308 307
Wind_Speed
5 5 6 7 8 9 10 10 11 11 10 9 6 2 4 3 3 5 5 5 5 4 2 2 1 6 6 2 1 2 3 4 4 5 3 9 9 6 8 6 10 11 11 10 9
5 6 7 8 9 10 10 10 11 11 11 10 7 5 4 7 8 9 7 7 5 3 3 3 3 10 4 3 1 3 3 3 1 3 3 7 11 8 7 10 11 14 22 19 15
8 8 8 8 9 11 11 11 11 12 11 11 9 7 5 7 9 9 14 10 7 4 2 2 3 8 4 4 4 3 3 0 3 6 4 5 7 8 8 11 18 19 18 24 22
10 11 11 11 11 11 13 14 13 13 13 12 11 8 7 5 5 5 13 12 9 5 3 2 2 4 4 5 4 4 5 4 2 5 4 5 5 6 18 21 13 14 17 19 27
14 13 14 14 14 14 14 15 16 15 14 14 13 11 8 8 13 11 13 13 11 8 6 5 4 4 4 4 4 5 5 6 6 7 8 6 11 10 19 23 23 23 20 21 25
16 16 16 16 17 17 16 16 17 17 16 16 14 12 10 9 11 11 14 16 14 11 9 7 5 4 2 4 5 4 5 6 6 7 6 7 6 3 9 11 20 25 26 25 27
19 19 19 19 19 19 18 18 19 18 18 17 16 13 14 17 14 12 13 15 15 13 11 8 6 4 4 2 2 1 6 6 12 7 5 5 9 12 23 16 16 20 22 26 29
22 22 21 21 21 21 20 20 20 20 20 19 15 11 10 14 13 14 14 14 13 11 9 7 5 3 2 4 1 3 3 5 5 9 3 5 14 13 10 14 19 20 20 25 29
24 23 23 22 22 23 22 21 21 20 19 17 11 8 8 10 12 15 14 11 11 10 8 6 4 3 4 3 4 4 10 9 4 13 5 11 15 5 9 11 19 22 23 25 27
24 25 24 22 22 23 23 22 21 19 16 10 11 5 14 8 9 11 14 13 10 9 5 6 3 4 3 7 12 12 8 8 10 6 8 10 22 23 23 17 31 33 30 28 30
25 25 24 21 21 21 22 17 8 6 8 9 5 6 5 10 9 10 14 14 11 7 7 2 7 16 17 17 13 7 8 17 14 4 5 18 22 25 28 26 33 36 32 31 32
25 25 24 20 20 17 17 9 10 8 10 15 22 25 25 17 8 14 16 12 10 12 7 4 16 19 6 6 9 10 13 22 14 3 8 15 22 22 23 30 34 36 36 30 26
23 24 25 20 17 16 13 11 8 7 6 10 20 17 21 22 14 16 20 12 7 9 14 17 9 3 9 10 10 12 18 17 11 4 8 10 16 10 8 19 27 36 35 27 25
20 21 22 16 13 13 8 5 2 4 5 6 5 6 8 7 5 11 21 9 5 10 9 10 6 11 9 11 14 14 8 12 8 5 12 3 18 13 14 14 12 32 23 21 25
21 17 17 13 8 9 6 5 2 2 9 2 3 4 7 6 3 3 15 9 8 8 7 6 5 7 11 9 12 6 2 4 3 8 6 12 10 9 2 6 17 16 25 20 20
19 16 15 9 15 14 10 6 4 4 11 3 4 4 4 3 1 4 4 3 1 3 4 7 1 4 3 3 1 8 3 1 2 4 10 18 18 5 5 7 8 16 22 18 15
20 18 18 14 11 18 15 10 4 9 3 7 6 6 4 6 6 7 7 9 8 5 10 4 9 3 4 4 3 4 3 5 6 6 15 2 8 15 14 12 14 18 23 8 12
23 23 25 19 13 16 22 5 14 5 15 3 3 5 9 12 7 9 6 8 12 5 2 5 11 12 9 12 4 11 6 6 14 15 25 5 11 11 11 20 30 18 22 21 15
29 33 34 28 14 20 17 9 13 11 8 9 3 5 8 6 6 8 13 8 11 19 13 9 10 2 1 2 3 8 8 2 6 2 9 13 21 7 9 13 9 19 17 23 24
38 40 47 35 22 26 7 23 12 11 8 6 19 15 16 13 10 11 12 7 8 17 22 2 8 4 3 2 1 3 3 4 3 7 19 27 30 19 12 15 12 11 17 23 20
31 12 18 39 32 23 11 15 14 21 14 12 19 15 14 15 13 10 15 5 9 7 12 5 9 5 5 12 16 5 6 5 2 4 10 20 12 4 5 4 8 13 21 16 19
27 5 19 31 14 9 13 11 7 6 15 12 3 12 22 16 14 12 17 14 17 12 12 9 3 12 19 1 3 2 10 15 8 8 11 11 28 3 3 5 4 4 10 13 15
13 20 20 45 8 7 10 11 8 8 11 12 16 13 13 16 11 14 18 8 16 12 11 9 4 5 11 4 1 7 6 10 13 14 32 11 29 13 14 15 16 16 20 22 29
14 3 6 23 14 18 18 19 13 19 21 8 6 12 9 12 15 13 18 7 16 14 4 17 7 14 21 18 3 6 10 16 22 18 21 24 35 39 33 31 25 30 26 31 39
11 7 14 6 13 14 18 10 22 14 15 17 6 17 20 16 22 23 26 17 4 5 6 6 11 14 23 25 21 23 21 21 25 27 25 35 28 34 35 33 28 34 32 43 39
11 5 9 6 28 25 21 18 24 24 17 16 21 23 25 25 24 21 25 22 15 4 8 7 20 24 30 34 32 29 22 31 31 38 33 29 32 35 39 53 42 52 44 43 43
14 21 9 13 11 15 23 31 30 28 25 33 26 20 20 27 42 48 41 25 11 16 14 9 11 14 21 25 19 15 36 34 41 34 32 32 37 35 34 31 31 47 38 37 45
Wind_Direction
349 350 352 353 358 1 5 7 10 9 17 14 11 332 247 270 243 237 221 201 183 171 139 174 177 179 176 208 195 163 240 237 224 195 153 164 193 190 210 209 206 212 227 230 212
326 331 336 339 339 341 344 346 349 351 352 358 349 340 272 248 259 251 234 214 205 188 178 186 177 168 170 168 173 233 257 257 212 209 223 188 207 193 191 207 231 234 235 232 223
317 323 329 330 332 331 332 331 331 332 333 335 339 326 303 271 274 246 221 215 213 219 216 193 175 176 170 168 182 176 258 230 241 232 224 219 216 199 225 229 229 227 231 232 223
305 311 317 322 324 327 328 327 326 323 323 323 322 316 297 264 252 223 207 216 219 225 238 258 216 185 178 191 182 219 231 224 222 205 193 218 182 219 223 243 245 240 242 237 224
298 303 307 312 315 317 320 320 319 320 318 315 313 305 288 256 251 248 222 219 220 226 237 243 231 185 219 190 178 224 207 216 235 227 226 225 234 249 247 251 254 256 250 238 230
292 297 301 305 309 312 313 313 311 312 312 309 305 295 272 247 262 243 230 226 227 229 236 241 234 245 190 208 220 186 236 252 252 234 228 235 240 217 257 234 233 244 246 241 235
288 292 296 300 304 306 310 311 309 308 305 303 298 285 268 266 265 244 234 231 234 238 237 236 232 213 179 196 223 282 284 253 227 221 237 209 259 233 258 245 242 240 239 238 237
279 285 289 294 298 301 305 308 307 306 303 298 291 274 256 262 251 242 236 232 232 234 234 230 228 217 170 150 96 242 259 251 148 175 201 197 277 238 238 232 243 242 237 238 237
274 277 280 285 291 296 300 305 306 303 297 288 274 247 259 260 244 236 225 221 221 221 219 215 211 189 159 223 252 218 269 228 271 203 150 211 277 255 236 242 257 252 244 243 244
272 272 275 281 286 291 298 304 308 299 280 268 244 236 240 235 232 223 216 211 206 204 195 202 189 226 197 207 258 269 249 247 253 183 215 219 255 271 267 251 264 267 259 250 243
279 275 273 276 283 291 297 314 309 293 248 225 217 229 248 230 227 216 207 197 195 189 209 164 223 234 241 227 269 269 260 266 267 195 235 251 256 271 281 275 264 269 262 253 247
280 278 278 276 277 284 294 301 286 274 299 262 253 249 250 247 241 220 205 186 183 214 153 185 238 252 243 231 230 237 259 264 283 199 213 273 269 272 266 266 267 268 268 260 253
285 280 278 279 274 277 279 283 278 286 253 268 245 244 249 237 230 233 199 203 195 199 204 230 245 80 199 218 211 234 238 258 260 313 226 283 271 245 259 253 272 267 260 257 246
290 283 278 276 272 262 257 240 240 331 260 239 219 231 218 192 245 209 194 191 200 237 194 242 259 229 213 234 203 243 234 248 268 285 275 2 289 277 272 264 249 269 264 250 249
300 291 280 258 214 214 207 182 153 355 275 68 175 198 172 192 124 193 193 208 216 183 179 221 182 198 216 236 179 244 111 181 201 250 304 252 269 274 134 251 259 263 266 252 243
289 291 290 275 223 212 188 169 136 230 244 219 161 170 157 213 183 123 165 179 127 186 247 259 168 214 213 84 182 135 119 161 162 251 255 257 232 260 190 212 244 259 266 252 226
269 265 266 271 234 203 184 149 228 230 41 195 194 182 175 187 198 186 173 180 188 182 221 206 221 174 180 151 135 193 180 285 256 238 267 131 255 263 277 237 236 250 265 253 224
257 256 261 263 234 192 167 159 235 194 211 77 136 148 198 166 209 181 173 214 230 208 162 223 257 185 177 222 218 186 215 204 274 282 289 109 251 276 229 245 250 262 257 261 239
248 239 242 246 239 194 173 207 229 209 186 175 106 212 217 217 207 180 209 216 208 191 204 194 249 108 296 102 184 157 197 318 283 100 286 256 258 229 203 238 243 252 260 256 249
243 234 237 237 215 192 204 233 216 196 151 181 222 197 232 212 187 192 193 193 223 202 217 231 276 146 115 139 77 217 118 136 198 271 270 280 290 284 234 239 234 247 242 256 252
277 234 253 233 194 185 208 227 237 230 194 196 232 243 238 233 212 214 238 208 200 198 199 165 204 209 150 201 207 177 201 203 272 226 266 281 271 148 161 152 203 224 239 253 264
224 208 230 198 191 205 222 219 226 229 228 249 247 257 246 238 246 241 245 229 187 152 170 205 192 235 240 95 336 314 233 207 225 224 236 267 273 114 249 210 232 247 269 273 276
228 216 203 194 205 215 239 252 251 233 218 209 227 227 230 241 245 241 250 207 185 168 170 173 210 242 259 222 217 208 198 230 237 257 249 223 260 210 277 275 277 260 268 276 279
241 205 189 213 214 206 216 227 232 230 242 230 227 219 227 243 227 248 248 216 199 207 191 171 174 223 242 245 132 184 212 224 223 236 255 239 256 275 275 271 281 281 277 270 262
236 204 189 184 229 230 221 215 230 234 216 213 247 227 230 245 247 245 251 248 192 192 122 153 236 237 247 263 265 271 270 251 236 242 247 259 265 266 275 280 278 282 285 278 274
261 203 193 212 213 218 217 218 234 241 222 224 220 222 227 233 230 246 238 244 226 187 215 197 237 235 255 263 266 259 251 255 260 259 255 254 266 265 269 275 283 277 271 273 274
269 264 272 200 204 216 220 225 227 233 233 232 224 230 226 230 230 237 245 254 225 228 225 209 221 221 240 234 248 258 243 246 252 255 255 263 255 263 266 264 262 270 282 276 267